Погода в Сайылыке

Россия / Республика Саха (Якутия)     63°51′25″N   123°50′46″E
темп.,
°C
ветер,
м/с
пор.,
м/с
влажн.,
%
обл.,
%
осадки,
мм/ч
давл.,
гПа
погр.,
м
1 марта, пн
пн100:00−27з4895100 0.1 1027471
03:00−28з4992100 0.1 1027443
06:00−29з4893100 0.0 1027366
09:00−30з4893100 0.0 1027373
12:00−29з4792100 0.0 1028395
15:00−28з3692100 0.0 1027409
18:00−31з239596 0.0 102749
21:00−33з239696 0.0 102746
2 марта, вт
вт200:00−36з229778 0.0 102719
03:00−36зюз229881 0.0 102719
06:00−37з229896 0.0 102719
09:00−37з129785 0.0 102734
12:00−32зсз129197 0.0 1027284
15:00−30сз118998 0.0 1026341
18:00−34ссз119593 0.0 102619
21:00−37с009779 0.0 102619
3 марта, ср
ср300:00−38сз119960 0.0 102619
03:00−39сз1110050 0.0 102519
06:00−40зсз119959 0.0 102518
09:00−38зсз229662 0.0 102539
12:00−33зсз239692 0.0 1024266
15:00−31зсз249597 0.1 1023376
18:00−31зсз3696100 0.1 1023413
21:00−31зсз3797100 0.3 1022431
4 марта, чт
чт400:00−31зсз4897100 0.2 1021490
03:00−30зсз4996100 0.4 1020614
06:00−30зсз4896100 0.3 1020681
09:00−31сз4895100 0.4 1020659
12:00−30сз4692100 0.1 1021803
15:00−29сз3590100 0.3 1022935
18:00−31сз2395100 0.1 102493
21:00−35сз2298100 0.1 102619
5 марта, пт
пт500:00−36зсз239894 0.0 102643
03:00−37зсз359695 0.0 102798
06:00−37з389644 0.0 1028169
09:00−36зсз499531 0.0 1029265
12:00−32з479462 0.0 1029370
15:00−30зсз489378 0.0 1029483
18:00−31зсз3795100 0.0 1030194
21:00−33зсз369757 0.0 1030102